DECAYED
Showing default

SPACEBEE-168, 56984 (Decayed)

Orbit data source: Space-Track

SPACEBEE-168, 56984 was a payload satellite owned by Swarm Tech (US) in LEO that was launched on Mon, 12 Jun 2023 UTC via an FALCON 9 launch vehicle from the Air Force Western Test Range (AFWTR). Payload-class satellites include a variety of spacecraft equipped with specific instruments for various scientific and technological missions. These include communications satellites like Starlink; space stations such as the ISS; scientific satellites like the Hubble; Earth observation satellites from companies like Planet Labs, Umbra, and HawkEye 360; GPS; miniature CubeSats for education and research; and military/defense satellites.

Not visible in the next 10 days
Identifier
56984, 2023-084BE
Orbit
Decayed
Last TLE update
7 months ago
Origin
Manufacturer
Swarm Tech
Mission
Decayed Commercial Communications
Bus & Motor
CUBESAT 0.25U, Unknown motor
Mass
0.284 kg wet, 0.284 kg dry
Launch date (UTC)
2023-06-12 (2 years ago)
Launch vehicle
FALCON 9
Launch site
Air Force Western Test Range (AFWTR)
Object type
Payload
Rocket body
Debris
Shape & HBR
Box + 2 Ant, 0.9 m
Radar Cross Section
0.016 m², Small (<0.1 m²)

Expand to show TLE details & history

TLE from 7 months ago
0 SPACEBEE-168
1 56984U 23084BE  24281.00247735  .11444338  25810-5  16844-2 0  9998
2 56984  97.5144  51.0262 0013340 283.0062  76.9744 16.34297356 73858
Epoch: 2024-10-07T00:03Z
Definitive object data (Epoch: 2024-10-07T00:03:34.043Z)
Latitude
-0.00003°
Longitude
33.99802°
Altitude
182.295 km
Speed
7.798 km/s
True Right ascension
03h 24m 06s
True Declination
0° 00' 00"
Sunlit
Object was in full shadow at TLE epoch
Visualization observer readout
Visualization observer readout
Orbital elements
Apogee altitude
186.582 km
Perigee altitude
169.091 km
Semi-major axis
6,555.974 km
Eccentricity
0.001334
Inclination
97.5144°
RAAN
51.0262°
Arg. of periapsis
283.0062°
True anomaly
77.12339°
Mean anomaly
76.9744°
Eccentric anomaly
77.04889°
Mean motion
4.08872 °/min
BSTAR
0.0016844
Orbital period
88.05 mins
Loading maneuver chart data...
Loading SW <> Apogee altitude chart data...
Loading historical data...
Loading historical data...
Loading historical data...
Loading historical data...
Loading historical data...
Loading historical data...
Loading historical data...

SPACEBEE-168 Visibility forecast

Observer location: undefined°, undefined°

This satellite is decayed
Span
Click to sort rows by Start time (UTC) header in descending order
Start Az.
Max El. time (UTC)
Max El. Az.
Max El.
End time (UTC)
End Az.
|